User: anonymous   Login
Location: Lutose
(59.4172°N, 117.2688°W)
Time: 03:18:25
(UTC+00:00)
Language:

Tiangong - Orbit

View from above orbital plane
View from above orbital plane
View from above satellite
View from above satellite

Ground track
Ground track

The orbit data is extracted from the following two-line orbital elements,

1 48274U 21035A   24110.84003119  .00037785  00000-0  38482-3 0  9998
2 48274  41.4679  79.5332 0006017  37.1128 323.0128 15.64355196169968
Epoch (UTC): 19 April 2024 20:09:38
Eccentricity: 0.0006017
inclination: 41.4679°
perigee height: 371 km
apogee height: 379 km
right ascension of ascending node: 79.5332°
argument of perigee: 37.1128°
revolutions per day: 15.64355196
mean anomaly at epoch: 323.0128°
orbit number at epoch: 16996

The dashed part of the orbit path shows where the satellite is in the earth's shadow,  

DLR